Simultaneous Nadir Overpasses (SNOs) Predictions

Prediction of SNOs between NOAA-20 and AQUA Satellite Orbit:

Table of predicted SNOs for the next 14.0 days since TLE Epoch: 10/30/2021
Index Date (NOAA-20) Time (NOAA-20) Lat,Lon (NOAA-20) SZA (NOAA-20 ) Date (AQUA) Time (AQUA) Lat,Lon (AQUA) SZA (AQUA ) Distance(km) Time Diff (sec)
1 10/30/2021 13:40:12 -73.39, 26.86 67.22 10/30/2021 13:41:26 -73.32, 27.22 67.36 13.74 74
2 10/30/2021 14:29:49 76.57,-156.58 109.32 10/30/2021 14:29:47 76.57,-156.51 109.31 1.90 2
3 10/30/2021 15:16:29 -80.39, 87.55 83.57 10/30/2021 15:15:16 -81.05, 89.28 83.18 79.64 73
4 11/02/2021 05:56:12 -75.96, 149.72 69.17 11/02/2021 05:57:05 -75.96, 149.74 69.22 0.53 53
5 11/02/2021 06:46:37 76.82, -39.84 109.86 11/02/2021 06:46:13 76.82, -39.78 109.87 1.73 24
6 11/04/2021 22:12:56 -76.40, -92.98 68.86 11/04/2021 22:13:27 -76.39, -93.02 68.87 1.18 31
7 11/04/2021 23:03:22 77.19, 77.47 110.23 11/04/2021 23:02:36 77.19, 77.46 110.27 0.27 46
8 11/07/2021 14:29:46 -76.51, 23.21 68.20 11/07/2021 14:29:54 -76.51, 23.26 68.22 1.26 8
9 11/07/2021 15:20:12 77.29,-166.30 110.89 11/07/2021 15:19:03 77.30,-166.22 110.93 2.00 69
10 11/10/2021 05:56:03 76.07, -29.88 113.05 11/10/2021 05:57:06 76.06, -29.96 113.01 2.34 63
11 11/10/2021 06:46:34 -76.75, 139.91 67.72 11/10/2021 06:46:19 -76.75, 139.98 67.72 1.96 15
12 11/12/2021 22:12:57 76.04, 85.79 113.82 11/12/2021 22:13:36 76.05, 85.88 113.76 2.64 39



Historial Predications of SNOs between NOAA-20 and AQUA
